Location: Newark
(33.6439°N, 114.9881°W)
Time: 10:03:04
(UTC+00:00)

Transit 4A - Visible Passes

Search period start: 20 July 2019 00:00
Search period end: 30 July 2019 00:00
Orbit: 862 x 982 km, 66.8° (Epoch: 19 July)

Date Brightness Start Highest point End Pass type
(mag) Time Alt. Az. Time Alt. Az. Time Alt. Az.
20 Jul 9.8 07:57:36 20° ENE 07:57:36 20° ENE 08:00:21 10° NE visible
20 Jul 8.5 09:41:07 47° WNW 09:41:19 47° WNW 09:47:30 10° NNE visible
21 Jul 9.4 08:06:41 29° ENE 08:06:41 29° ENE 08:10:19 10° NE visible
21 Jul 9.0 09:50:12 31° WNW 09:50:51 32° NW 09:56:32 10° N visible
22 Jul 8.9 08:15:44 41° NE 08:15:44 41° NE 08:19:58 10° NE visible
22 Jul 9.5 09:59:15 21° WNW 10:00:27 22° NW 10:05:21 10° N visible
23 Jul 8.7 08:24:45 51° NNE 08:24:45 51° NNE 08:29:25 10° NNE visible
23 Jul 10.0 10:08:15 14° WNW 10:10:11 15° NW 10:13:48 10° NNW visible
24 Jul 10.3 06:50:14 12° ENE 06:50:14 12° ENE 06:50:46 10° ENE visible
24 Jul 8.7 08:33:43 50° NNW 08:33:43 50° NNW 08:38:42 10° NNE visible
24 Jul 10.3 10:19:13 10° NW 10:20:01 10° NW 10:20:50 10° NW visible
25 Jul 9.9 06:59:10 18° ENE 06:59:10 18° ENE 07:01:03 10° NE visible
25 Jul 9.0 08:42:40 39° NW 08:42:40 39° NW 08:47:50 10° NNE visible
26 Jul 9.6 07:08:04 26° NE 07:08:04 26° NE 07:10:53 10° NE visible
26 Jul 9.4 08:51:33 28° NW 08:51:33 28° NW 08:56:47 10° N visible
27 Jul 9.2 07:16:55 35° NE 07:16:55 35° NE 07:20:27 10° NNE visible
27 Jul 9.8 09:00:24 19° WNW 09:01:00 19° NW 09:05:30 10° N visible
28 Jul 9.0 07:25:43 42° NNE 07:25:43 42° NNE 07:29:50 10° NNE visible
28 Jul 10.2 09:09:12 12° WNW 09:10:46 13° NW 09:13:44 10° NNW visible
29 Jul 10.2 05:50:59 12° ENE 05:50:59 12° ENE 05:51:36 10° ENE visible
29 Jul 9.0 07:34:28 42° NNW 07:34:28 42° NNW 07:39:03 10° NNE visible
